Content
SEND FEEDBACK

Daily
Averages
Monthly
Summary
United States of America

JENNINGS, LOUISIANA


Home > North America > United States > Louisiana
Elevation: 25 feet     Latitude: 30 14N     Longitude: 092 40W

WEATHER
 
SELECT A DAY
Number of Records: 126,354;   Date Range: 1/3/95 - 10/24/14
 
SHARE

PRINT THIS DATA

[ ← Previous Day ]
WEATHER ALMANAC - JULY 3, 2014
[ Next Day → ]
[ °C ]   °F
Weather ElementAverageHighLow
Temperature77.9 °F91.4 °F (2:50 pm)71.2 °F (9:15 pm)
Dewpoint68.6 °F73.4 °F (6:50 pm)65.7 °F (10:15 pm)
Humidity74.7 %91 % (9:15 pm)49 % (2:50 pm)
Barometer30.09 in30.17 in (8:45 pm)30.04 in (2:15 am)
Wind Speed5.4 mph23 mph (8:15 pm)
Wind Gust39.1 mph (8:15 pm)
Weather ElementAverage
Visibility9.6 mi
Wind DirectionSSE (150.5 °)

Weather ElementTotal
Precipitation0.21 in
Cooling Degree Days16.3 (Base 65)
Growing Degree Days31.3 (Base 50)
Averaged from 39 records on July 3, 2014
WEATHER CONDITIONS BREAKOUT
WIND DIRECTION BREAKOUT
WEATHER BY HOUR - JULY 3, 2014
[ °C ]   °F
Local TimeTemperatureDewpointHumidityBarometerVisibilityWind DirectionWind SpeedGust SpeedPrecipitationEventsConditions
12:35 AM74.5 °F68.5 °F82 %30.07 in10.0 miCalmClear
12:55 AM74.3 °F68.4 °F82 %30.08 in10.0 miNorth (10°)3.5 mphClear
1:15 AM73.0 °F68.0 °F84 %30.07 in10.0 miCalmClear
1:35 AM72.7 °F68.0 °F85 %30.07 in10.0 miNorth (360°)3.5 mphClear
1:55 AM73.0 °F68.0 °F84 %30.05 in10.0 miCalmClear
2:15 AM73.2 °F68.0 °F84 %30.04 in10.0 miCalmClear
2:35 AM71.8 °F68.0 °F88 %30.05 in10.0 miNorth (350°)3.5 mphClear
2:55 AM72.5 °F68.0 °F86 %30.04 in10.0 miCalmClear
3:15 AM73.6 °F68.0 °F83 %30.05 in10.0 miWNW (300°)3.5 mphClear
3:35 AM73.0 °F68.0 °F84 %30.04 in10.0 miCalmClear
3:55 AM72.9 °F68.0 °F85 %30.04 in10.0 miCalmClear
4:15 AM72.3 °F68.0 °F86 %30.04 in10.0 miNorth (360°)4.6 mphClear
6:00 AM71.6 °F68.0 °F88 %30.07 in10.0 miCalmPartly Cloudy
6:55 AM73.4 °F69.8 °F88 %30.08 in10.0 miCalmPartly Cloudy
7:45 AM75.2 °F69.8 °F83 %30.10 in10.0 miNorth (360°)6.9 mphScattered Clouds
8:51 AM78.8 °F69.8 °F74 %30.12 in10.0 miNorth (360°)4.6 mphScattered Clouds
9:53 AM84.2 °F68.0 °F58 %30.12 in10.0 miNNE (30°)5.8 mphClear
10:50 AM86.0 °F68.0 °F55 %30.12 in10.0 miNNW (330°)6.9 mphClear
11:50 AM87.8 °F68.0 °F52 %30.12 in10.0 miNNW (330°)6.9 mphClear
12:50 PM89.6 °F69.8 °F52 %30.11 in10.0 miNNE (30°)5.8 mphClear
1:50 PM89.6 °F69.8 °F52 %30.09 in10.0 miNorth (360°)4.6 mphClear
2:50 PM91.4 °F69.8 °F49 %30.08 in10.0 miEast (80°)6.9 mphClear
3:50 PM91.4 °F69.8 °F49 %30.07 in10.0 miNE (40°)4.6 mphClear
4:45 PM91.4 °F71.6 °F52 %30.05 in10.0 miNE (40°)6.9 mphPartly Cloudy
5:45 PM89.6 °F69.8 °F52 %30.05 in10.0 miENE (70°)6.9 mphPartly Cloudy
6:15 PM89.6 °F69.8 °F52 %30.06 in10.0 miESE (110°)5.8 mphPartly Cloudy
6:50 PM87.8 °F73.4 °F62 %30.06 in10.0 miESE (120°)3.5 mphScattered Clouds
7:48 PM80.6 °F69.8 °F70 %30.11 in10.0 miWNW (300°)21.9 mph27.6 mphThunderstorm
8:15 PM73.4 °F69.8 °F88 %30.16 in1.0 miNNW (340°)23.0 mph39.1 mphRain-ThunderstormHeavy Thunderstorms and Rain
8:45 PM71.6 °F68.0 °F88 %30.17 in4.0 miNorth (10°)16.1 mph18.4 mphRain-ThunderstormHeavy Thunderstorms and Rain
9:15 PM71.2 °F68.4 °F91 %30.14 in10.0 miNE (40°)8.1 mph0.04 inRain-ThunderstormLight Thunderstorms and Rain
9:35 PM71.8 °F66.6 °F84 %30.13 in10.0 miNorth (10°)8.1 mph0.04 inThunderstormThunderstorm
9:55 PM73.2 °F68.5 °F85 %30.12 in10.0 miWNW (300°)8.1 mph0.04 inScattered Clouds
10:15 PM74.1 °F65.7 °F75 %30.11 in10.0 miNNW (330°)12.7 mph0.01 inRainHeavy Rain
10:35 PM73.8 °F67.3 °F80 %30.12 in10.0 miSW (230°)8.1 mph0.04 inRainRain
10:55 PM74.1 °F66.6 °F77 %30.12 in10.0 miNNW (340°)5.8 mph0.04 inThunderstormScattered Clouds
11:15 PM73.0 °F67.1 °F82 %30.12 in10.0 miNNW (330°)5.8 mphClear
11:35 PM72.3 °F66.6 °F82 %30.12 in10.0 miCalmClear
11:55 PM73.2 °F67.5 °F82 %30.13 in10.0 miCalmClear
Hourly data recorded from KCWF, located miles away from Jennings, Louisiana







STORIES FROM OUR PARTNERS